Merrill, WI

10:03 PM CDT on March 27, 2017 (GMT -0500)
Merrill Municipal

Weather History for KRRL - August, 2014

Change the Weather History Date:

Thursday, August 14, 2014

  Actual Average Record
Temperature  
Mean Temperature 52 °F -  
Max Temperature 69 °F 78 °F 96 °F (1944)
Min Temperature 37 °F 53 °F 33 °F (2004)
Degree Days  
Heating Degree Days 12    
Growing Degree Days 2 (Base 50)    
Moisture  
Dew Point 45 °F    
Average Humidity 75    
Maximum Humidity 100    
Minimum Humidity 41    
Precipitation  
Precipitation 0.00 in - - ()
Sea Level Pressure  
Sea Level Pressure 30.13 in    
Wind  
Wind Speed 1 mph (NW)    
Max Wind Speed 8 mph    
Max Gust Speed -    
Visibility 9 miles    
Events Fog    
Averages and records for this station are not official NWS values.
T = Trace of Precipitation, MM = Missing Value Source: NWS Daily Summary

Daily Weather History Graph

Daily Weather History Graph

Search for Another Location

Airport or City:

Trip Planner

Search our weather history database for the weather conditions in past years. The results will help you decide how hot, cold, wet, or windy it might be!

Date:

Astronomy

Aug. 14, 2014 Rise Set
Actual Time 5:58 AM CDT 8:07 PM CDT
Civil Twilight 5:26 AM CDT 8:39 PM CDT
Nautical Twilight 4:46 AM CDT 9:18 PM CDT
Astronomical Twilight 4:02 AM CDT 10:02 PM CDT
Moon 10:14 PM CDT (8/14) 10:50 AM CDT (8/14)
Length of Visible Light 15h 12m
Length of Day
14h 08m
Waning Gibbous, 79% of the Moon is Illuminated
Aug 14
Waning Gibbous
Aug 17
Last Quarter
Aug 25
New
Sep 2
First Quarter
Sep 8
Full

Hourly Weather History & Observations

Time (CDT) Temp. Dew Point Humidity Pressure Visibility Wind Dir Wind Speed Gust Speed Precip Events Conditions
12:15 AM 47.3 °F 45.1 °F 92% 30.14 in 10.0 mi Calm Calm - N/A   Clear
12:35 AM 46.6 °F 44.6 °F 93% 30.14 in 10.0 mi Calm Calm - N/A   Clear
12:55 AM 45.9 °F 43.2 °F 90% 30.14 in 10.0 mi Calm Calm - N/A   Clear
1:15 AM 44.1 °F 43.5 °F 98% 30.15 in 10.0 mi Calm Calm - N/A   Clear
1:35 AM 43.2 °F 42.6 °F 98% 30.14 in 10.0 mi Calm Calm - N/A   Clear
1:55 AM 42.4 °F 42.3 °F 99% 30.15 in 10.0 mi Calm Calm - N/A   Clear
2:15 AM 43.2 °F 41.9 °F 95% 30.15 in - Calm Calm - N/A   Unknown
2:35 AM 42.8 °F 42.8 °F 100% 30.15 in 10.0 mi Calm Calm - N/A   Clear
2:55 AM 42.3 °F 42.1 °F 99% 30.15 in 10.0 mi Calm Calm - N/A   Clear
3:15 AM 41.7 °F 41.5 °F 99% 30.15 in 10.0 mi Calm Calm - N/A   Clear
3:35 AM 40.1 °F 39.9 °F 99% 30.15 in 10.0 mi Calm Calm - N/A   Clear
3:55 AM 39.4 °F 39.2 °F 99% 30.15 in 10.0 mi Calm Calm - N/A   Clear
4:15 AM 39.0 °F 38.8 °F 99% 30.15 in 10.0 mi Calm Calm - N/A   Clear
4:35 AM 40.6 °F 40.6 °F 100% 30.15 in 0.2 mi Calm Calm - N/A Fog Fog
5:15 AM 38.1 °F 38.1 °F 100% 30.16 in 10.0 mi Calm Calm - N/A   Scattered Clouds
5:35 AM 38.5 °F 38.5 °F 100% 30.16 in 10.0 mi Calm Calm - N/A   Scattered Clouds
5:55 AM 37.9 °F 37.9 °F 100% 30.17 in 10.0 mi Calm Calm - N/A   Clear
6:15 AM 38.1 °F 38.1 °F 100% 30.17 in 10.0 mi Calm Calm - N/A   Scattered Clouds
6:35 AM 39.0 °F 39.0 °F 100% 30.18 in 3.0 mi Calm Calm - N/A   Mostly Cloudy
6:55 AM 40.6 °F 40.6 °F 100% 30.18 in 0.2 mi Calm Calm - N/A Fog Fog
7:15 AM 42.6 °F 42.6 °F 100% 30.18 in 0.2 mi Calm Calm - N/A Fog Fog
7:35 AM 44.4 °F 44.4 °F 100% 30.18 in 1.0 mi Calm Calm - N/A   Mostly Cloudy
7:55 AM 46.6 °F 46.6 °F 100% 30.18 in 10.0 mi Calm Calm - N/A   Clear
8:15 AM 48.6 °F 48.2 °F 99% 30.18 in 10.0 mi Calm Calm - N/A   Clear
8:35 AM 51.1 °F 48.6 °F 91% 30.18 in 10.0 mi Calm Calm - N/A   Clear
8:55 AM 53.1 °F 49.1 °F 86% 30.19 in 10.0 mi Calm Calm - N/A   Clear
9:15 AM 55.2 °F 50.2 °F 83% 30.18 in 10.0 mi Calm Calm - N/A   Clear
9:35 AM 58.3 °F 47.5 °F 67% 30.18 in 10.0 mi Calm Calm - N/A   Clear
9:55 AM 60.4 °F 48.2 °F 64% 30.18 in 10.0 mi Calm Calm - N/A   Clear
10:15 AM 61.0 °F 46.6 °F 59% 30.18 in 10.0 mi Calm Calm - N/A   Clear
10:35 AM 61.9 °F 45.7 °F 55% 30.18 in 10.0 mi WNW 3.5 mph - N/A   Clear
10:55 AM 62.8 °F 42.4 °F 47% 30.17 in 10.0 mi NNE 5.8 mph - N/A   Clear
11:15 AM 63.5 °F 42.3 °F 46% 30.17 in 10.0 mi Calm Calm - N/A   Clear
11:35 AM 63.7 °F 42.4 °F 46% 30.17 in 10.0 mi North 5.8 mph - N/A   Clear
11:55 AM 64.4 °F 43.3 °F 46% 30.15 in 10.0 mi ENE 3.5 mph - N/A   Clear
12:15 PM 64.4 °F 42.3 °F 44% 30.15 in 10.0 mi Calm Calm - N/A   Clear
12:35 PM 65.3 °F 43.2 °F 45% 30.15 in 10.0 mi West 4.6 mph - N/A   Clear
12:55 PM 65.3 °F 44.4 °F 47% 30.14 in 10.0 mi NW 3.5 mph - N/A   Clear
1:15 PM 66.2 °F 45.1 °F 47% 30.14 in 10.0 mi WNW 8.1 mph - N/A   Clear
1:35 PM 66.6 °F 44.8 °F 45% 30.13 in 10.0 mi WNW 4.6 mph - N/A   Clear
1:55 PM 67.1 °F 45.0 °F 45% 30.12 in 10.0 mi WNW 4.6 mph - N/A   Clear
2:15 PM 67.3 °F 45.3 °F 45% 30.12 in 10.0 mi Calm Calm - N/A   Clear
2:35 PM 68.0 °F 44.2 °F 42% 30.11 in 10.0 mi Calm Calm - N/A   Clear
2:55 PM 68.4 °F 44.6 °F 42% 30.10 in 10.0 mi North 3.5 mph - N/A   Clear
3:15 PM 68.7 °F 45.5 °F 43% 30.10 in 10.0 mi North 5.8 mph - N/A   Clear
3:35 PM 68.7 °F 44.2 °F 41% 30.10 in 10.0 mi Calm Calm - N/A   Clear
3:55 PM 68.0 °F 45.7 °F 45% 30.10 in 10.0 mi WNW 5.8 mph - N/A   Clear
4:15 PM 68.7 °F 46.8 °F 45% 30.10 in 10.0 mi NW 6.9 mph - N/A   Clear
4:35 PM 68.0 °F 46.0 °F 45% 30.10 in 10.0 mi WNW 4.6 mph - N/A   Clear
4:55 PM 67.3 °F 47.1 °F 48% 30.09 in 10.0 mi NW 3.5 mph - N/A   Clear
5:15 PM 66.7 °F 47.1 °F 49% 30.09 in 10.0 mi Calm Calm - N/A   Clear
5:35 PM 68.5 °F 46.6 °F 45% 30.08 in 10.0 mi NW 4.6 mph - N/A   Clear
5:55 PM 68.7 °F 46.2 °F 44% 30.08 in 10.0 mi NW 4.6 mph - N/A   Clear
6:15 PM 68.5 °F 46.8 °F 46% 30.07 in 10.0 mi NNW 3.5 mph - N/A   Clear
6:35 PM 68.2 °F 47.7 °F 48% 30.07 in 10.0 mi North 3.5 mph - N/A   Clear
6:55 PM 67.1 °F 48.0 °F 50% 30.07 in 10.0 mi North 3.5 mph - N/A   Clear
7:15 PM 66.6 °F 49.3 °F 54% 30.06 in 10.0 mi Calm Calm - N/A   Clear
7:35 PM 64.6 °F 51.8 °F 63% 30.06 in 10.0 mi Calm Calm - N/A   Clear
7:55 PM 62.2 °F 52.3 °F 70% 30.06 in 10.0 mi Calm Calm - N/A   Clear
8:15 PM 59.4 °F 53.2 °F 80% 30.06 in 10.0 mi Calm Calm - N/A   Clear
8:35 PM 56.8 °F 51.3 °F 82% 30.06 in 10.0 mi Calm Calm - N/A   Clear
8:55 PM 55.4 °F 50.9 °F 85% 30.06 in 10.0 mi Calm Calm - N/A   Clear
9:15 PM 53.6 °F 50.4 °F 89% 30.07 in 10.0 mi Calm Calm - N/A   Clear
9:35 PM 51.3 °F 49.8 °F 95% 30.07 in 10.0 mi Calm Calm - N/A   Clear
9:55 PM 52.0 °F 51.1 °F 97% 30.07 in 10.0 mi Calm Calm - N/A   Clear
10:15 PM 49.6 °F 49.3 °F 99% 30.06 in 7.0 mi Calm Calm - N/A   Clear
10:35 PM 48.9 °F 48.6 °F 99% 30.06 in 10.0 mi Calm Calm - N/A   Clear
10:55 PM 49.8 °F 49.3 °F 98% 30.07 in 10.0 mi Calm Calm - N/A   Clear
11:15 PM 47.8 °F 47.5 °F 99% 30.07 in 10.0 mi Calm Calm - N/A   Clear
11:35 PM 46.6 °F 46.0 °F 98% 30.06 in 7.0 mi Calm Calm - N/A   Clear
11:55 PM 47.5 °F 47.1 °F 99% 30.06 in 10.0 mi Calm Calm - N/A   Mostly Cloudy